This demonstration page uses our WeatherBlox Daily Observations layout. Learn more.

39.29038, -76.61219

Hourly Observations for July 17, 2016

Temp ( °F °C ) Dew Point ( °F °C ) Humidity (%) Winds ( mph kmh ) Pressure ( in mb ) Visibility ( mi km ) Precip ( " mm )
12:54 am 00:54 undefined 74 23.3 64 17.8 71 71 undefined N/A 30.09 1019 N/A 0 0
1:54 am 01:54 undefined 73 22.8 65 18.3 76 76 undefined N/A 30.09 1019 N/A 0 0
2:54 am 02:54 undefined 71 21.7 66 18.9 84 84 undefined N/A 30.09 1019 N/A 0 0
3:54 am 03:54 undefined 72 22.2 66 18.9 82 82 undefined N/A 30.07 1018 N/A 0 0
4:54 am 04:54 undefined 72 22.2 67 19.4 84 84 undefined N/A 30.08 1019 N/A 0 0
5:54 am 05:54 undefined 71 21.7 66 18.9 84 84 undefined N/A 30.1 1019 N/A 0 0
6:54 am 06:54 undefined 73 22.8 66 18.9 79 79 undefined N/A 30.11 1020 N/A 0 0
7:54 am 07:54 undefined 76 24.4 67 19.4 74 74 undefined N/A 30.12 1020 N/A 0 0
8:54 am 08:54 undefined 79 26.1 66 18.9 65 65 undefined N/A 30.12 1020 N/A 0 0
9:54 am 09:54 undefined 83 28.3 66 18.9 57 57 undefined N/A 30.14 1021 N/A 0 0
10:54 am 10:54 undefined 86 30 66 18.9 51 51 undefined N/A 30.14 1021 N/A 0 0
11:54 am 11:54 undefined 87 30.6 62 16.7 43 43 undefined N/A 30.14 1021 N/A 0 0
12:54 pm 12:54 undefined 88 31.1 62 16.7 42 42 undefined N/A 30.13 1020 N/A 0 0
1:54 pm 13:54 undefined 89 31.7 61 16.1 39 39 undefined N/A 30.14 1021 N/A 0 0
2:54 pm 14:54 undefined 92 33.3 60 15.6 34 34 undefined N/A 30.13 1020 N/A 0 0
3:54 pm 15:54 undefined 91 32.8 60 15.6 35 35 undefined N/A 30.12 1020 N/A 0 0
4:54 pm 16:54 undefined 91 32.8 61 16.1 37 37 undefined N/A 30.11 1020 N/A 0 0
5:54 pm 17:54 undefined 91 32.8 60 15.6 35 35 undefined N/A 30.11 1020 N/A 0 0
6:54 pm 18:54 undefined 89 31.7 61 16.1 39 39 undefined N/A 30.12 1020 N/A 0 0
7:54 pm 19:54 undefined 89 31.7 61 16.1 39 39 undefined N/A 30.12 1020 N/A 0 0
8:54 pm 20:54 undefined 88 31.1 62 16.7 42 42 undefined N/A 30.12 1020 N/A 0 0
9:54 pm 21:54 undefined 85 29.4 67 19.4 55 55 undefined N/A 30.14 1021 N/A 0 0
10:54 pm 22:54 undefined 83 28.3 66 18.9 57 57 undefined N/A 30.13 1020 N/A 0 0
11:54 pm 23:54 undefined 82 27.8 66 18.9 58 58 undefined N/A 30.13 1020 N/A 0 0

Powered by AerisWeather